FW8528 Weather Reports


Display with metric or nautical units.
time (UTC)temp
F
wind
direction
speed
MPH
gust
MPH
rain 1hr
in
rain 24hr
in
rain mn
in
humidity
%
barometer
mb
20260505061322 53 208 0.0 0.0 0.00 0.00 0.00 97 1010.9
20260505060820 53 225 0.0 0.0 0.00 0.00 0.00 97 1011.3
20260505060316 53 227 0.0 0.0 0.00 0.00 0.00 97 1010.9
20260505055812 53 227 0.0 0.0 0.00 0.00 0.00 96 1011.3
20260505055308 53 227 0.0 0.0 0.00 0.00 0.00 96 1010.9
20260505054806 54 237 0.0 0.0 0.00 0.00 0.00 96 1010.9
20260505054303 54 199 0.0 0.0 0.00 0.00 0.00 96 1010.9
20260505053801 54 211 0.0 0.0 0.00 0.00 0.00 96 1010.9
20260505053258 54 211 0.0 0.0 0.00 0.00 0.00 96 1010.6
20260505052754 54 211 0.0 0.0 0.00 0.00 0.00 95 1010.9
20260505052252 54 211 0.0 0.0 0.00 0.00 0.00 95 1010.9
20260505051748 54 199 0.0 1.0 0.00 0.00 0.00 94 1010.9
20260505051246 54 208 0.0 0.0 0.00 0.00 0.00 94 1010.9
20260505050744 55 200 0.0 0.0 0.00 0.00 0.00 94 1010.9
20260505050243 55 221 0.0 0.0 0.00 0.00 0.00 94 1010.6
20260505041712 57 228 0.0 0.0 0.00 0.00 0.00 89 1010.6
20260505041209 57 182 1.0 1.0 0.00 0.00 0.00 88 1010.9
20260505040706 57 200 0.0 0.0 0.00 0.00 0.00 88 1010.6
20260505040204 58 198 0.0 1.0 0.00 0.00 0.00 87 1010.6
20260505035700 58 215 0.0 0.0 0.00 0.00 0.00 87 1010.6
20260505035156 58 183 0.0 1.0 0.00 0.00 0.00 86 1010.6
20260505034653 59 207 0.0 0.0 0.00 0.00 0.00 86 1010.6
20260505034150 59 193 1.0 1.0 0.00 0.00 0.00 86 1010.3
20260505033646 59 223 0.0 0.0 0.00 0.00 0.00 85 1009.9
20260505033145 60 164 1.0 1.0 0.00 0.00 0.00 84 1010.3
20260505032643 60 198 1.0 1.0 0.00 0.00 0.00 84 1010.3
20260505032138 60 180 1.0 1.0 0.00 0.00 0.00 83 1009.9
20260505031636 61 226 0.0 0.0 0.00 0.00 0.00 81 1009.9
20260505031132 61 207 0.0 0.0 0.00 0.00 0.00 80 1009.9
20260505030629 62 206 0.0 0.0 0.00 0.00 0.00 80 1009.9
20260505030125 62 207 1.0 1.0 0.00 0.00 0.00 80 1009.9
20260505025620 62 256 0.0 0.0 0.00 0.00 0.00 77 1009.9
20260505025120 63 241 0.0 0.0 0.00 0.00 0.00 77 1010.3
20260505024617 64 205 0.0 1.0 0.00 0.00 0.00 77 1010.3
20260505024114 64 230 0.0 0.0 0.00 0.00 0.00 78 1009.9
20260505023611 64 165 1.0 1.0 0.00 0.00 0.00 76 1009.9
20260505023109 65 243 0.0 0.0 0.00 0.00 0.00 74 1009.6
20260505022606 65 181 1.0 1.0 0.00 0.00 0.00 74 1009.9
20260505022103 66 212 0.0 0.0 0.00 0.00 0.00 74 1009.9
20260505021559 66 288 1.0 1.0 0.00 0.00 0.00 71 1009.9
20260505021056 66 213 1.0 1.0 0.00 0.00 0.00 72 1009.6
20260505020556 67 223 1.0 1.0 0.00 0.00 0.00 70 1009.6
20260505020053 67 298 0.0 1.0 0.00 0.00 0.00 70 1009.9
20260505015550 68 272 1.0 1.0 0.00 0.00 0.00 69 1009.6
20260505015047 68 254 0.0 0.0 0.00 0.00 0.00 69 1009.9
20260505014544 69 227 0.0 0.0 0.00 0.00 0.00 70 1009.9
20260505014041 69 85 0.0 1.0 0.00 0.00 0.00 67 1009.6
20260505013538 70 155 1.0 2.0 0.00 0.00 0.00 68 1009.6
20260505013036 70 132 1.0 1.0 0.00 0.00 0.00 64 1009.9
20260505012533 71 166 1.0 1.0 0.00 0.00 0.00 63 1009.6
20260505012030 72 209 1.0 1.0 0.00 0.00 0.00 62 1009.6
20260505011526 71 185 1.0 1.0 0.00 0.00 0.00 65 1009.6
20260505011023 73 243 1.0 1.0 0.00 0.00 0.00 62 1009.6
20260505010518 73 228 0.0 0.0 0.00 0.00 0.00 61 1009.6
20260505010015 73 227 0.0 0.0 0.00 0.00 0.00 60 1009.9
20260505005512 74 177 1.0 1.0 0.00 0.00 0.00 60 1009.6
20260505005009 74 246 0.0 0.0 0.00 0.00 0.00 60 1009.9
20260505004506 73 143 3.0 3.0 0.00 0.00 0.00 60 1009.9
20260505004003 73 281 0.0 1.0 0.00 0.00 0.00 60 1009.9
20260505003500 74 258 0.0 0.0 0.00 0.00 0.00 59 1009.6
20260505002956 74 161 2.0 2.0 0.00 0.00 0.00 58 1009.6
20260505002452 74 137 1.0 2.0 0.00 0.00 0.00 59 1009.6
20260505001951 74 225 1.0 1.0 0.00 0.00 0.00 59 1009.6
20260505001448 75 226 1.0 2.0 0.00 0.00 0.00 57 1009.9
20260505000945 76 143 2.0 2.0 0.00 0.00 0.00 59 1009.9
20260505000443 75 204 1.0 1.0 0.00 0.00 0.00 57 1009.6
20260504235940 75 132 3.0 3.0 0.00 0.00 0.00 58 1009.9
20260504235437 75 253 2.0 3.0 0.00 0.00 0.00 57 1009.6
20260504234933 76 230 0.0 1.0 0.00 0.00 0.00 58 1009.6
20260504234431 76 159 4.0 5.0 0.00 0.00 0.00 57 1009.9
20260504233927 76 166 3.0 3.0 0.00 0.00 0.00 57 1009.9
20260504233423 76 158 2.0 2.0 0.00 0.00 0.00 57 1009.6
20260504232920 75 241 0.0 0.0 0.00 0.00 0.00 58 1009.6
20260504232417 76 234 1.0 2.0 0.00 0.00 0.00 56 1009.6
20260504231914 76 171 2.0 2.0 0.00 0.00 0.00 57 1009.6
20260504231410 76 202 2.0 2.0 0.00 0.00 0.00 58 1009.6
20260504230907 75 233 2.0 3.0 0.00 0.00 0.00 59 1009.6
20260504230404 75 197 2.0 2.0 0.00 0.00 0.00 57 1009.9
20260504225903 75 197 4.0 6.0 0.00 0.00 0.00 57 1010.3
20260504225359 76 184 2.0 3.0 0.00 0.00 0.00 61 1009.9
20260504224856 75 203 2.0 2.0 0.00 0.00 0.00 58 1009.9
20260504224353 75 204 3.0 5.0 0.00 0.00 0.00 58 1009.9
20260504223850 76 229 3.0 5.0 0.00 0.00 0.00 57 1010.3
20260504223345 76 259 2.0 2.0 0.00 0.00 0.00 58 1009.9
20260504222842 77 155 2.0 2.0 0.00 0.00 0.00 55 1010.3
20260504222338 77 193 3.0 3.0 0.00 0.00 0.00 56 1010.3
20260504221837 76 173 1.0 2.0 0.00 0.00 0.00 55 1009.9
20260504221333 75 157 4.0 5.0 0.00 0.00 0.00 56 1010.3
20260504220831 75 170 2.0 2.0 0.00 0.00 0.00 57 1009.9
20260504220327 76 201 3.0 3.0 0.00 0.00 0.00 55 1010.3
20260504215825 75 248 2.0 2.0 0.00 0.00 0.00 56 1010.3
20260504215321 75 247 0.0 0.0 0.00 0.00 0.00 59 1010.3
20260504214817 75 188 3.0 5.0 0.00 0.00 0.00 60 1010.3
20260504214314 73 82 3.0 5.0 0.00 0.00 0.00 59 1010.3
20260504213810 74 118 6.0 7.0 0.00 0.00 0.00 57 1010.6
20260504213306 74 244 0.0 1.0 0.00 0.00 0.00 58 1010.6
20260504212804 73 210 1.0 1.0 0.00 0.00 0.00 62 1010.6
20260504212300 75 101 4.0 5.0 0.00 0.00 0.00 58 1010.6
20260504211758 74 150 2.0 3.0 0.00 0.00 0.00 58 1010.6
20260504211254 74 204 2.0 2.0 0.00 0.00 0.00 57 1010.6
20260504210751 74 220 2.0 2.0 0.00 0.00 0.00 58 1010.6
20260504210249 74 167 2.0 3.0 0.00 0.00 0.00 58 1010.6
20260504205745 75 333 2.0 2.0 0.00 0.00 0.00 57 1010.6
20260504205243 74 37 1.0 1.0 0.00 0.00 0.00 59 1010.6
20260504204741 74 199 4.0 5.0 0.00 0.00 0.00 59 1010.6
20260504204239 74 244 1.0 2.0 0.00 0.00 0.00 61 1010.6
20260504203738 74 256 1.0 1.0 0.00 0.00 0.00 59 1010.6
20260504203235 73 170 3.0 3.0 0.00 0.00 0.00 59 1010.6
20260504202735 73 170 5.0 8.0 0.00 0.00 0.00 59 1010.6
20260504202233 73 253 1.0 1.0 0.00 0.00 0.00 60 1010.6
20260504201730 73 252 2.0 2.0 0.00 0.00 0.00 59 1010.6
20260504201227 75 221 2.0 2.0 0.00 0.00 0.00 59 1010.6
20260504200725 73 320 1.0 1.0 0.00 0.00 0.00 64 1010.6
20260504200220 72 248 2.0 2.0 0.00 0.00 0.00 62 1010.6
20260504195717 74 151 5.0 6.0 0.00 0.00 0.00 59 1010.6
20260504195213 74 180 2.0 2.0 0.00 0.00 0.00 62 1010.6
20260504194710 75 238 1.0 1.0 0.00 0.00 0.00 59 1010.6
20260504194206 73 107 1.0 3.0 0.00 0.00 0.00 61 1010.9
20260504193702 73 131 2.0 2.0 0.00 0.00 0.00 62 1010.9
20260504193200 71 127 3.0 3.0 0.00 0.00 0.00 63 1010.9
20260504192658 71 242 1.0 1.0 0.00 0.00 0.00 62 1010.9
20260504192156 70 167 2.0 3.0 0.00 0.00 0.00 67 1010.9
20260504191654 69 180 2.0 3.0 0.00 0.00 0.00 72 1010.9
20260504191150 71 143 2.0 2.0 0.00 0.00 0.00 67 1010.9
20260504190646 71 210 3.0 3.0 0.00 0.00 0.00 65 1010.9
20260504190143 70 165 2.0 2.0 0.00 0.00 0.00 66 1010.9
20260504185639 68 180 4.0 7.0 0.00 0.00 0.00 70 1011.3
20260504185136 68 220 1.0 1.0 0.00 0.00 0.00 70 1011.3
20260504184632 67 168 3.0 3.0 0.00 0.00 0.00 71 1011.3
20260504184127 68 221 3.0 3.0 0.00 0.00 0.00 70 1011.3
20260504183624 68 150 3.0 3.0 0.00 0.00 0.00 71 1011.3
20260504183122 68 131 4.0 5.0 0.00 0.00 0.00 69 1010.9
20260504182620 68 261 1.0 1.0 0.00 0.00 0.00 69 1010.9
20260504182117 68 25 1.0 2.0 0.00 0.00 0.00 70 1010.9
20260504181614 67 174 3.0 7.0 0.00 0.00 0.00 71 1010.9
20260504181112 67 182 0.0 1.0 0.00 0.00 0.00 72 1011.3
20260504180611 67 202 4.0 5.0 0.00 0.00 0.00 71 1011.3
20260504180109 68 261 1.0 1.0 0.00 0.00 0.00 70 1010.9
20260504175606 67 259 3.0 3.0 0.00 0.00 0.00 71 1010.9
20260504175103 66 175 2.0 2.0 0.00 0.00 0.00 72 1011.3
20260504174601 66 192 2.0 3.0 0.00 0.00 0.00 73 1011.3
20260504174057 66 232 1.0 1.0 0.00 0.00 0.00 73 1010.9
20260504173554 66 132 3.0 3.0 0.00 0.00 0.00 73 1010.9
20260504173052 66 267 3.0 5.0 0.00 0.00 0.00 72 1011.3
20260504172547 66 123 3.0 5.0 0.00 0.00 0.00 72 1010.9
20260504172044 65 176 3.0 3.0 0.00 0.00 0.00 73 1010.9
20260504171541 65 233 0.0 0.0 0.00 0.00 0.00 75 1010.6
20260504171038 65 175 2.0 2.0 0.00 0.00 0.00 75 1010.9
20260504170534 65 167 0.0 0.0 0.00 0.00 0.00 74 1010.6
20260504150918 55 246 0.0 0.0 0.00 0.00 0.00 91 1010.3
20260504150415 55 247 0.0 0.0 0.00 0.00 0.00 92 1010.3
20260504140841 53 253 0.0 0.0 0.00 0.00 0.00 94 1009.9
20260504140337 53 253 0.0 0.0 0.00 0.00 0.00 92 1009.9
20260504130806 53 253 0.0 0.0 0.00 0.00 0.00 89 1009.9
20260504130302 53 253 0.0 0.0 0.00 0.00 0.00 89 1009.9
20260504120225 53 244 0.0 0.0 0.00 0.00 0.00 90 1009.6
20260504110653 53 244 0.0 0.0 0.00 0.00 0.00 89 1009.6
20260504110149 53 244 0.0 0.0 0.00 0.00 0.00 89 1009.6
20260504100615 55 244 0.0 0.0 0.00 0.00 0.00 85 1009.6
20260504100113 55 244 0.0 0.0 0.00 0.00 0.00 86 1009.6
20260504081506 55 243 0.0 0.0 0.00 0.00 0.00 95 1009.6
20260504081001 55 243 0.0 0.0 0.00 0.00 0.00 98 1009.9
20260504080458 55 243 0.0 0.0 0.00 0.00 0.00 98 1009.9